Location: Kielce
(50.8833°N, 20.6167°E)
Time: 22:26:58
(UTC+02:00)

SR - Pass Details

Date: 22 April 2021
Orbit: 573 x 882 km, 66.7° (Epoch: 09 May)

Event Time Altitude Azimuth Distance (km) Brightness Sun altitude
Rises 17:14:08 0° 315° (NW) 3,468 ? 22.5°
Reaches altitude 10° 17:17:08 10° 302° (WNW) 2,499 ? 22.0°
Maximum altitude 17:21:34 23° 252° (WSW) 1,687 ? 21.3°
Drops below altitude 10° 17:25:48 10° 201° (SSW) 2,361 ? 20.6°
Sets 17:28:34 0° 188° (S) 3,232 ? 20.2°
